Regional Weather Roundup
Issued by NWS

Home | Current Version | Previous Version | Graphics & Text | Print | Product List | Glossary On
Versions: 1 2 3 4 5 6 7 8 9 10 11 12 13 14 15 16 17 18 19 20 21 22 23 24 25 26 27 28 29 30 31 32 33 34 35 36 37 38 39 40 41 42 43 44 45 46 47 48 49 50
000
ASUS43 KLOT 181112
RWRIL

ILLINOIS REGIONAL WEATHER ROUNDUP
NATIONAL WEATHER SERVICE CHICAGO/ROMEOVILLE IL
600 AM CDT SAT APR 18 2015

NOTE: "FAIR" INDICATES FEW OR NO CLOUDS BELOW 12,000 FEET WITH NO
SIGNIFICANT WEATHER AND/OR OBSTRUCTIONS TO VISIBILITY.

* THESE STATIONS ARE NOT UNDER NWS QUALITY CONTROL. THEY ALSO MAY NOT
  REPORT WEATHER SUCH AS PRECIPITATION OR FOG.

ILZ001-002-007-009-015-016-024-181200-
NORTHWEST ILLINOIS

CITY           SKY/WX    TMP DP  RH WIND       PRES   REMARKS
MOLINE         PTCLDY    52  46  80 CALM      29.99F
STERLING*      CLEAR     50  45  81 CALM      30.02S
SAVANNA*       PTCLDY    51  47  87 N5        30.02R
$$

ILZ003-004-008-010-011-017-018-181200-
NORTH CENTRAL ILLINOIS

CITY           SKY/WX    TMP DP  RH WIND       PRES   REMARKS
ROCKFORD       PTCLDY    52  47  83 CALM      30.05R
FREEPORT*      PTCLDY    49  46  87 CALM      30.05R
ROCHELLE*      CLEAR     49  45  85 CALM      30.04R
DE KALB*       CLEAR     52  44  74 CALM      30.04R
PERU*          PTCLDY    56  50  80 CALM      30.02S
$$

ILZ005-006-012>014-019>023-181200-
NORTHEAST ILLINOIS

CITY           SKY/WX    TMP DP  RH WIND       PRES   REMARKS
CHICAGO-OHARE  PTCLDY    55  47  74 N3        30.02R
CHICAGO-MIDWAY MOCLDY    61  50  67 CALM      30.02R
AURORA         PTCLDY    51  45  79 CALM      30.03R
LANSING*       MOCLDY    53  46  76 S3        30.03R
JOLIET*        CLEAR     52  50  93 CALM      30.03R
WAUKEGAN       LGT RAIN  56  45  66 N6        30.02R
DUPAGE AIRPORT CLEAR     52  47  83 S3        30.02R
KANKAKEE*      CLEAR     51  48  90 CALM      30.04S
WHEELING       CLEAR     51  46  83 CALM      30.04R
MORRIS*        CLEAR     51  46  83 CALM      30.00S
ROMEOVILLE*    MOCLDY    57  48  73 CALM      30.03R
NORTHERLY ISL    N/A     63  48  58 W12         N/A
$$

LMZ740>746-181200-
SOUTHERN LAKE MICHIGAN

STATION/POSITION SKY/WX   TEMP    WIND        PRES    VSBY  WAVE
                          AIR SEA DIR/SP/G                  HT/PER
                          (F)     (DEG/KT/KT) (MB)    (MI)  (FT/S)
HARRISON CRIB              65     260/ 13/ 14   N/A
BURNHAM HARBOR             63     250/  8/ 11   N/A
CALUMET HARBOR             62     230/  5/  7   N/A
BURNS HARBOR               61     200/  7/  8 1016.9S
MICHIGAN CITY              62     200/  6/  7   N/A
MICHIGAN CITY 6N           53 47                N/A           0
$$

ILZ025>027-034>036-040-047-049-050-058-095>099-181200-
WEST-CENTRAL ILLINOIS

CITY           SKY/WX    TMP DP  RH WIND       PRES   REMARKS
QUINCY         MOCLDY    59  53  80 SE6       29.99S
GALESBURG*     MOCLDY    53  50  90 CALM      30.00S
MACOMB*        PTCLDY    52  49  88 E3        30.02S
JACKSONVILLE*  PTCLDY    55  51  87 SE3       30.01S
PITTSFIELD*    MOCLDY    55  51  86 CALM      30.01S
$$

ILZ028>032-037-038-041>044-048-051>054-059>061-181200-
CENTRAL ILLINOIS

CITY           SKY/WX    TMP DP  RH WIND       PRES   REMARKS
PONTIAC        PTCLDY    56  52  86 CALM      30.03S
BLOOMINGTON    MOCLDY    58  53  83 SW3       30.04S
DECATUR        PTCLDY    52  48  86 CALM      30.03R
PEORIA         MOCLDY    59  52  77 S3        30.02R
LACON*         MOCLDY    56  51  83 CALM      30.01R
LINCOLN*       MOCLDY    53  49  86 CALM      30.01S
SPRINGFIELD    PTCLDY    55  51  86 CALM      30.01F
TAYLORVILLE    CLEAR     54  52  94 CALM      30.02S
$$

ILZ033-039-045-046-055>057-062-063-181200-
EAST-CENTRAL ILLINOIS

CITY           SKY/WX    TMP DP  RH WIND       PRES   REMARKS
CHAMPAIGN      PTCLDY    53  47  79 CALM      30.04R
DANVILLE*      CLEAR     50  47  89 CALM      30.01S
RANTOUL*       PTCLDY    55  51  85 CALM      30.04R
MATTOON        CLEAR     54  51  90 CALM      30.03R
PARIS*         CLEAR     50  49  96 CALM      30.04S
$$

ILZ079-100>102-181200-
SOUTHWEST ILLINOIS

CITY           SKY/WX    TMP DP  RH WIND       PRES   REMARKS
ALTON          MOCLDY    55  54  99 E3        30.01S FOG
BELLEVILLE     PTCLDY    55  55 100 CALM      30.00S FOG
CAHOKIA*       CLOUDY    58  56  93 S3        30.00S FOG
SPARTA*        CLOUDY    55  55  97 CALM      30.02S FOG
$$

ILZ064>066-069>071-074>076-080>082-084>086-088>090-092>094-181200-
SOUTH-CENTRAL ILLINOIS

CITY           SKY/WX    TMP DP  RH WIND       PRES   REMARKS
CARBONDALE     CLOUDY    56  55  97 CALM      30.01S FOG
CAIRO*         FOG       58  58 100 CALM      30.00F VSB 1/4
EFFINGHAM*     PTCLDY    52  50  91 CALM      30.04S FOG
MARION         FOG       57  57 100 CALM      30.02S VSB 1
MT. VERNON     MOCLDY    52  46  82 N3        30.03S
CENTRALIA*     MOCLDY    52  51  94 E3        30.02F FOG
SALEM*         MOCLDY    55  53  92 CALM      30.03S FOG
METROPOLIS*    CLOUDY    58  58 100 CALM      30.01S FOG
$$

ILZ067-068-072-073-078-083-087-091-181200-
SOUTHEAST ILLINOIS

CITY           SKY/WX    TMP DP  RH WIND       PRES   REMARKS
LAWRENCEVILLE  CLEAR     54  52  93 NE5       30.03R
FLORA*         CLEAR     52  52  98 CALM      30.04R FOG
FAIRFIELD*     MOCLDY    54  53  98 CALM      30.03R FOG
HARRISBURG*    CLOUDY    57  57 100 CALM      30.04R FOG
ROBINSON*      CLEAR     49  49  99 CALM      30.04S FOG
CARMI*         FOG       53  50  90 CALM      30.02R VSB 1/4
$$

ABBREVIATIONS USED IN REMARKS
   TC - TEMPERATURE IN CELSIUS
  WCI - WIND CHILL INDEX
   HX - HEAT INDEX
  VSB - VISIBILITY
$$




USA.gov is the U.S. government's official web portal to all federal, state and local government web resources and services.